COSMOS 886 DEB, 18907

Orbit data source: Space-Track

COSMOS 886 DEB, 18907 is space debris in LEO originally from a launch on Mon, 27 Dec 1976 UTC launched from the Tyuratam Missile And Space Complex (TTMTR). Debris objects in space refer to the collection of defunct objects orbiting the Earth. Examples of debris include non-operational satellites, rocket bodies, and fragments generated from explosions, collisions, or faulty payload assembly.

Loading next visibility...
Identifier
18907, 1976-126BY
Orbit
LEO
Country
Flag of CISCIS
Related business
Manufacturer
Unknown
Mission
Spacecraft
Bus & Motor
Unknown
Mass
Unknown
Launch date (UTC)
1976-12-27 (49 years ago)
Launch vehicle
Unknown
Launch site
Tyuratam Missile And Space Complex (TTMTR)
Object type
Payload
Rocket body
Debris
Shape & HBR
Unknown shape, 0.1 m
Radar Cross Section
Small (<0.1 m²)

Expand to show TLE details & history
Last TLE update: 20 hours ago

TLE from 20 hours ago
0 COSMOS 886 DEB
1 18907U 76126BY  26129.78945653  .00001786  00000-0  44992-3 0  9997
2 18907  65.8127 104.8865 0858001  45.4507 321.3421 13.31239046842670
Epoch: 2026-05-09T18:56Z
TLE epoch observation values (Epoch: 2026-05-09T18:56:49.044Z)
Latitude
0.00005°
Longitude
-46.91968°
Altitude
664.045 km
Speed
7.762 km/s
True Right ascension
06h 59m 32s
True Declination
0° 00' 00"
Sunlit
Object was in daylight at epoch
Visualization orbit readout
Latitude
Unknown
Longitude
Unknown
Altitude
Unknown
Speed
Unknown
Apparent Right ascension
Unknown
Apparent Declination
Unknown
Sunlit
N/A
Visualization observer readout
Local Sidereal Time
23:31:35
Azimuth
Unknown
Elevation
Unknown
Doppler factor
Unknown
Orbital elements
Apogee altitude
1,785.739 km
Perigee altitude
495.518 km
Semi-major axis
7,518.765 km
Eccentricity
0.0858
Inclination
65.8127°
RAAN
104.8865°
Arg. of periapsis
45.4507°
True anomaly
314.65662°
Mean anomaly
321.3421°
Eccentric anomaly
318.05625°
Mean motion
3.32907 °/min
Orbital period
108.14 mins
BSTAR
0.00044992
Loading maneuver chart data...
Computing Atmospheric mass density...
Loading historical data...
Loading historical data...
Loading historical data...
Loading historical data...
Loading historical data...
Loading historical data...
Loading historical data...

Documentation

Showing up to 5 results
|